Terminal Aerodrome Forecast
Issued by NWS Cleveland, OH

Home | Current Version | Previous Version | Text Only | Print | Product List | Glossary Off
Versions: 1 2 3 4 5 6 7 8 9 10 11 12 13 14 15 16

000
FTUS41 KCLE 171700
TAFERI
TAF
KERI 171725Z 1718/1818 26010G20KT P6SM OVC015
     FM180100 26010KT 5SM -SHSN BR OVC015
     FM181000 28010KT P6SM OVC015=

USA.gov is the U.S. government's official web portal to all federal, state and local government web resources and services.